USA 134

Last updated on Sat Apr 13 2024 01:02:36 GMT+0100 (British Summer Time)

1 25019U 97065A 24103.40257743 -.00000070 00000+0 00000+0 0 9992 2 25019 11.8333 27.2822 0004054 331.4887 234.9797 1.00275136 24976
UTC large
Height (km)
Speed (km/s)
/
Latitude / Longitude
Inclination (degrees)
Orbital Period (minutes)
Azimuth
Elevation
Range (km)
Doppler Factor

Next 0 passes for location: London (51.5072 / 0.1276)

Sorry there are no passes over London.